DW8463 Weather Reports


time (UTC)temp
F
wind
direction
speed
knots
gust
knots
rain 1hr
in
rain 24hr
in
rain mn
in
humidity
%
barometer
mb
20260903171304 84 119 3.5 7.0 0.00 0.02 0.02 70 1008.4
20260903170803 84 128 2.6 6.1 0.00 0.02 0.02 70 1008.4
20260903170303 83 118 2.6 7.0 0.00 0.02 0.02 73 1008.5
20260903165803 82 146 0.9 4.3 0.00 0.02 0.02 84 1008.5
20260903165305 81 134 1.7 2.6 0.00 0.02 0.02 84 1008.7
20260903164803 81 163 2.6 4.3 0.00 0.02 0.02 84 1008.7
20260903164304 81 132 0.9 2.6 0.00 0.02 0.02 84 1008.6
20260903163804 81 123 0.0 4.3 0.00 0.02 0.02 84 1008.6
20260903163303 82 95 0.0 1.7 0.00 0.02 0.02 84 1008.5
20260903162804 81 123 0.9 2.6 0.00 0.02 0.02 84 1008.6
20260903162306 80 135 0.9 2.6 0.00 0.02 0.02 84 1008.5
20260903161803 79 140 0.9 7.8 0.00 0.02 0.02 84 1008.5
20260903161303 79 161 4.3 7.8 0.00 0.02 0.02 84 1008.4
20260903160803 80 154 2.6 7.0 0.00 0.02 0.02 84 1008.4
20260903160303 79 113 1.7 5.2 0.00 0.02 0.02 87 1008.5
20260903155803 79 169 0.9 4.3 0.00 0.02 0.02 98 1008.4
20260903155306 78 122 1.7 7.0 0.00 0.02 0.02 98 1008.4
20260903154803 77 138 1.7 8.7 0.00 0.02 0.02 98 1008.5
20260903154303 76 176 0.0 4.3 0.00 0.02 0.02 98 1008.5
20260903153803 76 142 2.6 6.1 0.00 0.02 0.02 98 1008.8
20260903153303 76 176 1.7 6.1 0.00 0.02 0.02 98 1008.9
20260903152306 76 91 2.6 5.2 0.00 0.02 0.02 98 1008.7
20260903151804 76 163 1.7 6.1 0.00 0.02 0.02 98 1008.6
20260903151303 76 144 4.3 7.8 0.00 0.02 0.02 98 1008.5
20260903150303 75 112 1.7 7.0 0.00 0.02 0.02 98 1008.4
20260903145803 75 92 0.9 6.1 0.00 0.02 0.02 100 1008.6
20260903145306 74 81 4.3 7.8 0.00 0.02 0.02 100 1008.6
20260903144303 73 96 1.7 7.8 0.00 0.02 0.02 100 1008.8
20260903143803 72 132 2.6 7.8 0.00 0.02 0.02 100 1008.9
20260903143303 73 189 2.6 7.0 0.00 0.02 0.02 100 1009.1
20260903142803 73 151 1.7 5.2 0.00 0.02 0.02 100 1008.9
20260903142306 73 207 0.9 7.0 0.00 0.02 0.02 100 1008.8
20260903141803 72 151 2.6 5.2 0.00 0.02 0.02 100 1008.6
20260903141303 72 219 2.6 7.0 0.00 0.02 0.02 100 1008.5
20260903140803 72 82 1.7 7.0 0.00 0.02 0.02 100 1008.3
20260903140303 72 0 1.7 5.2 0.00 0.02 0.02 100 1008.2
20260903135803 72 0 0.9 5.2 0.00 0.02 0.02 99 1008.4
20260903135306 71 0 0.9 5.2 0.01 0.02 0.02 99 1008.5
20260903134803 71 0 1.7 7.8 0.01 0.02 0.02 99 1008.5
20260903134303 71 202 2.6 7.0 0.01 0.02 0.02 99 1008.5
20260903132803 71 229 1.7 5.2 0.01 0.02 0.02 99 1009.1
20260903132306 71 195 2.6 4.3 0.01 0.02 0.02 99 1009.1
20260903131804 71 208 2.6 4.3 0.01 0.02 0.02 99 1009.3
20260903131304 71 202 1.7 2.6 0.01 0.02 0.02 99 1009.5
20260903130803 70 154 2.6 5.2 0.01 0.02 0.02 99 1009.9
20260903130303 70 151 2.6 5.2 0.02 0.02 0.02 99 1009.8
20260903125305 70 307 0.0 0.0 0.01 0.01 0.01 95 1009.6
20260903124804 71 306 0.0 0.9 0.01 0.01 0.01 95 1009.9
20260903124303 71 306 0.0 0.9 0.01 0.01 0.01 95 1009.9
20260903123303 71 305 0.9 2.6 0.01 0.01 0.01 95 1010.2
20260903122305 71 250 1.7 7.0 0.01 0.01 0.01 95 1009.6
20260903121803 71 255 1.7 7.0 0.01 0.01 0.01 95 1009.6
20260903121303 71 247 2.6 6.1 0.01 0.01 0.01 95 1009.5
20260903120303 71 295 1.7 10.4 0.00 0.00 0.00 95 1009.9
20260903115803 71 236 0.9 7.8 0.00 0.01 0.00 93 1009.8
20260903115305 71 217 1.7 8.7 0.00 0.01 0.00 93 1009.7
20260903114803 71 214 2.6 7.8 0.00 0.01 0.00 93 1009.6
20260903114303 71 252 0.9 6.1 0.00 0.01 0.00 93 1009.8
20260903113803 71 270 0.9 7.0 0.00 0.01 0.00 93 1009.8
20260903112803 71 218 0.9 5.2 0.00 0.01 0.00 93 1009.1
20260903112305 71 236 1.7 7.0 0.00 0.01 0.00 93 1009.1
20260903111803 71 222 2.6 8.7 0.00 0.01 0.00 93 1009.0
20260903111304 71 246 1.7 10.4 0.00 0.01 0.00 93 1009.2
20260903110803 71 227 1.7 4.3 0.00 0.01 0.00 93 1009.3
20260903110303 72 248 1.7 7.0 0.00 0.01 0.00 93 1009.4
20260903105804 71 245 2.6 10.4 0.00 0.01 0.00 95 1009.4
20260903105306 71 238 1.7 6.1 0.00 0.01 0.00 95 1009.6
20260903104303 72 252 1.7 5.2 0.00 0.01 0.00 95 1009.4
20260903103804 72 311 0.9 1.7 0.00 0.01 0.00 95 1009.6
20260903103303 73 311 1.7 6.1 0.00 0.01 0.00 95 1009.7
20260903102804 72 325 0.9 2.6 0.00 0.01 0.00 95 1009.8
20260903102305 72 306 1.7 6.1 0.00 0.01 0.00 95 1009.7
20260903101803 72 265 2.6 8.7 0.00 0.02 0.00 95 1009.8
20260903101303 72 298 2.6 7.0 0.00 0.02 0.00 95 1009.4
20260903100803 72 250 5.2 14.8 0.00 0.02 0.00 95 1008.8
20260903100303 72 217 2.6 13.0 0.00 0.02 0.00 95 1008.8
20260903095804 71 188 5.2 20.9 0.00 0.02 0.00 100 1009.2
20260903095305 70 191 4.3 15.6 0.00 0.02 0.00 100 1009.6
20260903094803 70 135 0.0 0.9 0.00 0.02 0.00 100 1009.4
20260903094306 70 134 0.0 0.9 0.00 0.02 0.00 100 1009.0
20260903093803 70 141 0.0 0.9 0.00 0.02 0.00 100 1008.7
20260903093303 70 141 0.0 0.0 0.00 0.02 0.00 100 1008.8
20260903092803 70 169 0.0 0.0 0.00 0.02 0.00 100 1009.0
20260903092306 70 190 0.0 0.0 0.00 0.02 0.00 100 1008.7
20260903091303 70 186 0.0 1.7 0.00 0.02 0.00 100 1008.3
20260903090803 70 180 0.9 1.7 0.00 0.02 0.00 100 1008.1
20260903090304 70 187 0.0 0.9 0.00 0.02 0.00 100 1008.5
20260903085803 70 182 0.0 0.9 0.00 0.02 0.00 100 1008.4
20260903084803 70 175 0.0 0.9 0.00 0.02 0.00 100 1008.5
20260903084303 70 188 0.0 0.9 0.00 0.02 0.00 100 1008.5
20260903082803 70 186 0.0 0.9 0.00 0.02 0.00 100 1008.4
20260903082306 70 193 0.0 0.0 0.00 0.02 0.00 100 1008.5
20260903081803 70 186 0.0 0.0 0.00 0.02 0.00 100 1008.4
20260903081303 70 186 0.0 0.0 0.00 0.02 0.00 100 1008.4
20260903080803 70 184 0.0 0.9 0.00 0.02 0.00 100 1008.4
20260903080303 70 189 0.0 0.0 0.00 0.02 0.00 100 1008.4
20260903075803 70 184 0.0 0.0 0.00 0.02 0.00 100 1008.4
20260903075306 70 180 0.0 0.0 0.00 0.02 0.00 100 1008.4
20260903074803 70 187 0.0 0.0 0.00 0.02 0.00 100 1008.4
20260903074303 69 184 0.0 0.0 0.00 0.03 0.00 100 1008.5
20260903073804 69 184 0.0 0.0 0.00 0.03 0.00 100 1008.4
20260903073303 69 187 0.0 0.0 0.00 0.03 0.00 100 1008.6
20260903072804 70 182 0.0 0.0 0.00 0.04 0.00 100 1008.7
20260903072306 70 187 0.0 0.0 0.00 0.06 0.00 100 1008.7
20260903071303 70 173 0.0 0.0 0.00 0.06 0.00 100 1008.6
20260903070803 70 171 0.0 0.0 0.00 0.07 0.00 100 1008.7
20260903070303 70 168 0.0 0.0 0.00 0.07 0.00 100 1008.7
20260903065803 70 173 0.0 0.0 0.00 0.08 0.00 100 1008.7
20260903065305 70 172 0.0 0.0 0.00 0.10 0.00 100 1008.8
20260903064803 70 173 0.0 0.0 0.00 0.14 0.00 100 1008.8
20260903064303 70 168 0.0 0.0 0.00 0.18 0.00 100 1008.8
20260903063804 70 167 0.0 0.0 0.00 0.28 0.00 100 1008.8
20260903062803 71 167 0.0 0.0 0.00 0.59 0.00 100 1008.8
20260903062306 71 174 0.0 0.0 0.00 0.67 0.00 100 1008.9
20260903061303 71 171 0.0 0.0 0.00 0.72 0.00 100 1008.8
20260903060803 71 173 0.0 0.0 0.00 0.72 0.00 100 1008.9
20260903055803 70 169 0.0 0.0 0.00 0.74 0.00 100 1008.9
20260903055306 71 167 0.0 0.0 0.00 0.86 0.00 100 1008.9
20260903054303 71 175 0.0 0.0 0.00 0.89 0.00 100 1009.0
20260903052306 71 173 0.0 0.0 0.00 0.89 0.00 100 1009.1
20260903051803 71 167 0.0 0.0 0.00 0.89 0.00 100 1009.2
20260903050303 71 173 0.0 0.0 0.00 0.91 0.00 100 1009.2
20260903045803 71 0 0.0 0.0 0.00 0.91 0.91 100 1009.2
20260903045306 71 0 0.0 0.0 0.00 0.92 0.91 100 1009.1
20260903044803 71 0 0.0 0.0 0.00 0.92 0.91 100 1009.1
20260903044303 71 0 0.0 0.0 0.00 0.92 0.91 100 1009.1
20260903042803 71 0 0.0 0.0 0.00 0.92 0.91 100 1009.1
20260903042306 71 342 0.0 0.0 0.00 0.92 0.91 100 1009.1
20260903041303 71 306 0.0 0.0 0.00 0.92 0.91 100 1009.1
20260903040804 71 342 0.0 0.0 0.00 0.92 0.91 100 1009.1
20260903040304 71 220 0.0 0.0 0.00 0.92 0.91 100 1009.2
20260903035803 72 204 0.0 0.0 0.00 0.92 0.91 100 1009.2
20260903035306 72 206 0.0 0.0 0.00 0.92 0.91 100 1009.2
20260903034804 72 189 0.0 0.0 0.00 0.92 0.91 100 1009.3
20260903034303 72 186 0.0 0.0 0.00 0.92 0.91 100 1009.3
20260903033803 72 184 0.0 0.0 0.00 0.92 0.91 100 1009.4
20260903033303 72 182 0.0 0.0 0.00 0.92 0.91 100 1009.4
20260903032803 72 186 0.0 0.0 0.00 0.92 0.91 100 1009.4
20260903032305 72 184 0.0 0.0 0.00 0.92 0.91 100 1009.4
20260903031303 73 183 0.0 0.0 0.00 0.92 0.91 100 1009.5
20260903030803 73 172 0.0 0.0 0.00 0.92 0.91 100 1009.5
20260903025804 73 174 0.0 0.0 0.00 0.92 0.91 100 1009.5
20260903025306 74 177 0.0 0.0 0.00 0.92 0.91 100 1009.4
20260903024804 74 177 0.0 0.0 0.00 0.92 0.91 100 1009.4
20260903024303 74 176 0.0 0.0 0.00 0.92 0.91 100 1009.5
20260903023304 74 181 0.0 0.0 0.00 0.92 0.91 100 1009.5
20260903022803 74 175 0.0 0.0 0.00 0.92 0.91 100 1009.5
20260903022306 75 171 0.0 0.0 0.00 0.92 0.91 100 1009.5
20260903021803 75 168 0.0 0.0 0.00 0.92 0.91 100 1009.3
20260903021303 75 187 0.0 0.0 0.00 0.92 0.91 100 1009.3
20260903020803 75 182 0.0 0.0 0.00 0.92 0.91 100 1009.3
20260903015803 76 137 0.0 0.0 0.00 0.92 0.91 97 1009.2
20260903015306 76 102 0.0 0.0 0.00 0.92 0.91 97 1009.1
20260903014803 76 102 0.0 0.0 0.00 0.92 0.91 97 1009.1
20260903013803 77 101 0.0 0.0 0.00 0.92 0.91 97 1008.9
20260903012803 77 101 0.0 0.0 0.00 0.92 0.91 97 1008.8
20260903012306 78 101 0.0 0.0 0.00 0.92 0.91 97 1008.8
20260903011804 78 101 0.0 0.0 0.00 0.92 0.91 97 1008.8
20260903011303 78 101 0.0 0.0 0.00 0.92 0.91 97 1008.7
20260903010804 78 101 0.0 0.0 0.00 0.92 0.91 97 1008.6
20260903010303 79 101 0.0 0.0 0.00 0.92 0.91 93 1008.6
20260903005804 79 101 0.0 0.0 0.00 0.92 0.91 75 1008.6
20260903004303 80 101 0.0 0.0 0.00 0.92 0.91 75 1008.7
20260903003804 80 101 0.0 0.0 0.00 0.92 0.91 75 1008.7
20260903003303 81 101 0.0 0.0 0.00 0.92 0.91 75 1008.6
20260903002804 82 101 0.0 0.0 0.00 0.92 0.91 75 1008.6
20260903002306 83 101 0.9 1.7 0.00 0.92 0.91 75 1008.6
20260903001303 83 101 0.0 1.7 0.00 0.92 0.91 75 1008.6
20260903000804 84 101 0.0 0.9 0.00 0.92 0.91 75 1008.6
20260903000303 84 82 0.0 2.6 0.00 0.92 0.91 75 1008.6
20260902235803 84 52 1.7 4.3 0.00 0.92 0.91 70 1008.6
20260902235305 84 56 0.9 2.6 0.00 0.92 0.91 70 1008.6
20260902234804 85 76 2.6 6.1 0.00 0.92 0.91 70 1008.6
20260902234303 85 76 0.9 2.6 0.00 0.92 0.91 70 1008.6
20260902233803 85 91 1.7 2.6 0.00 0.92 0.91 70 1008.6
20260902232803 85 86 0.9 2.6 0.00 0.92 0.91 70 1008.6
20260902232306 85 74 0.0 2.6 0.00 0.92 0.91 70 1008.5
20260902231803 85 76 0.9 4.3 0.00 0.92 0.91 70 1008.5
20260902231303 86 9 0.9 4.3 0.00 0.92 0.91 70 1008.5
20260902230803 85 319 0.0 0.0 0.00 0.92 0.91 70 1008.5
20260902230303 84 319 0.0 0.0 0.00 0.92 0.91 70 1008.5
20260902225803 85 319 0.0 0.0 0.00 0.92 0.91 66 1008.5
20260902225306 84 319 0.0 0.0 0.00 0.92 0.91 66 1008.6
20260902224803 84 319 0.0 0.0 0.00 0.92 0.91 66 1008.5
20260902224303 85 319 0.0 0.0 0.00 0.92 0.91 66 1008.5
20260902223803 86 319 0.0 0.0 0.00 0.92 0.91 66 1008.5
20260902223303 86 319 0.0 0.0 0.00 0.92 0.91 66 1008.5
20260902222803 85 319 0.0 1.7 0.00 0.92 0.91 66 1008.6
20260902222305 86 319 0.0 1.7 0.00 0.92 0.91 66 1008.5
20260902221803 86 319 0.0 0.0 0.00 0.92 0.91 66 1008.5
20260902221303 86 319 0.0 0.0 0.00 0.92 0.91 66 1008.5
20260902220803 87 319 0.0 0.9 0.00 0.92 0.91 66 1008.5
20260902215803 87 278 0.9 2.6 0.00 0.92 0.91 63 1008.6
20260902215306 86 280 0.9 2.6 0.00 0.92 0.91 63 1008.6
20260902214803 87 113 0.0 1.7 0.00 0.92 0.91 63 1008.5
20260902214303 87 226 0.9 2.6 0.00 0.92 0.91 63 1008.6
20260902213803 87 37 0.9 1.7 0.00 0.92 0.91 63 1008.6
20260902213304 88 183 0.9 2.6 0.00 0.92 0.91 63 1008.6
20260902212803 88 56 1.7 2.6 0.00 0.92 0.91 63 1008.7
20260902212305 88 344 0.9 2.6 0.00 0.92 0.91 63 1008.7
20260902211803 87 356 0.0 2.6 0.00 0.92 0.91 63 1008.7
20260902211303 87 251 2.6 4.3 0.00 0.92 0.91 63 1008.7
20260902210803 88 341 2.6 5.2 0.00 0.92 0.91 63 1008.7
20260902210303 87 151 0.0 2.6 0.00 0.92 0.91 63 1008.8
20260902205306 88 127 1.7 4.3 0.00 0.92 0.91 68 1008.8
20260902204803 87 175 0.0 1.7 0.00 0.92 0.91 68 1008.9
20260902204303 87 307 0.0 2.6 0.00 0.92 0.91 68 1009.1
20260902203804 88 204 1.7 2.6 0.00 0.92 0.91 68 1009.1
20260902203303 88 288 4.3 7.0 0.00 0.92 0.91 68 1009.1
20260902202804 87 157 0.9 2.6 0.00 0.92 0.91 68 1009.1
20260902202306 87 176 0.9 5.2 0.00 0.92 0.91 68 1009.1
20260902201803 87 196 2.6 5.2 0.00 0.92 0.91 68 1009.2
20260902201303 87 225 0.0 0.9 0.00 0.92 0.91 68 1009.1
20260902200803 87 231 1.7 4.3 0.00 0.92 0.91 68 1009.1
20260902200304 87 163 0.9 1.7 0.00 0.92 0.91 68 1009.1
20260902195306 86 139 0.0 2.6 0.00 0.92 0.91 65 1009.0
20260902194804 86 213 1.7 4.3 0.00 0.92 0.91 65 1009.1
20260902194303 87 195 0.0 0.9 0.00 0.92 0.91 65 1009.2
20260902193803 86 190 1.7 4.3 0.00 0.92 0.91 65 1009.3
20260902193303 86 184 0.9 2.6 0.00 0.92 0.91 65 1009.3
20260902192803 86 247 0.0 4.3 0.00 0.92 0.91 65 1009.4
20260902192306 86 118 0.9 5.2 0.00 0.92 0.91 65 1009.4
20260902191803 86 127 0.9 4.3 0.00 0.92 0.91 65 1009.4
20260902191303 85 123 0.0 1.7 0.00 0.92 0.91 65 1009.5
20260902190803 86 141 1.7 2.6 0.00 0.92 0.91 65 1009.7
20260902185804 85 200 0.0 2.6 0.00 0.92 0.91 72 1009.8
20260902184803 85 198 0.9 5.2 0.00 0.92 0.91 72 1009.9
20260902184303 85 173 0.9 4.3 0.00 0.92 0.91 72 1009.8
20260902183804 85 219 0.0 2.6 0.00 0.92 0.91 72 1009.8
20260902182803 85 218 0.9 2.6 0.00 0.92 0.91 72 1010.0
20260902182306 83 230 0.0 2.6 0.00 0.92 0.91 72 1010.0
20260902181303 84 120 0.9 2.6 0.00 0.92 0.91 72 1010.0
20260902180803 84 228 1.7 5.2 0.00 0.92 0.91 72 1010.2
20260902180304 84 168 0.0 1.7 0.00 0.92 0.91 72 1010.3
20260902175307 83 229 0.9 2.6 0.00 0.92 0.91 74 1010.5
20260902174803 83 210 0.9 6.1 0.00 0.92 0.91 74 1010.6
20260902174304 83 205 0.9 6.1 0.00 0.92 0.91 74 1010.6
20260902173804 83 126 1.7 5.2 0.00 0.92 0.91 74 1010.6
20260902173303 83 267 2.6 7.8 0.00 0.92 0.91 74 1010.7
20260902172803 82 218 1.7 6.1 0.00 0.92 0.91 74 1010.8
20260902172308 82 280 2.6 10.4 0.00 0.92 0.91 74 1010.8
20260902171803 82 237 2.6 7.8 0.00 0.92 0.91 74 1010.9